THORAD DELTA 1 DEB, 8310

Orbit data source: Space-Track

THORAD DELTA 1 DEB, 8310 is space debris in SSO originally from a launch on Fri, 15 Nov 1974 UTC launched from the Air Force Western Test Range (AFWTR). Debris objects in space refer to the collection of defunct objects orbiting the Earth. Examples of debris include non-operational satellites, rocket bodies, and fragments generated from explosions, collisions, or faulty payload assembly.

Loading next visibility...
Identifier
8310, 1974-089BT
Orbit
SSO
Country
Flag of USUS
Related business
Manufacturer
Unknown
Mission
Spacecraft
Bus & Motor
Unknown
Mass
Unknown
Launch date (UTC)
1974-11-15 (51 years ago)
Launch vehicle
Unknown
Launch site
Air Force Western Test Range (AFWTR)
Object type
Payload
Rocket body
Debris
Shape & HBR
Unknown shape, 0.8 m
Radar Cross Section
Medium (>0.1 m² and <1 m²)

Expand to show TLE details & history
Last TLE update: 7 hours ago

TLE from 7 hours ago
0 THORAD DELTA 1 DEB
1  8310U 74089BT  25289.07109027  .00000001  00000-0  31763-3 0  9996
2  8310 101.5479 275.1101 0066518 324.2470  98.7407 12.40368986305152
Epoch: 2025-10-16T01:42Z
TLE epoch observation values (Epoch: 2025-10-16T01:42:22.199Z)
Latitude
61.56772°
Longitude
-157.37609°
Altitude
1,523.705 km
Speed
7.106 km/s
True Right ascension
16h 52m 12s
True Declination
61° 26' 15"
Sunlit
Object was in daylight at epoch
Visualization orbit readout
Latitude
Unknown
Longitude
Unknown
Altitude
Unknown
Speed
Unknown
Apparent Right ascension
Unknown
Apparent Declination
Unknown
Sunlit
N/A
Visualization observer readout
Local Sidereal Time
03:36:42
Azimuth
Unknown
Elevation
Unknown
Doppler factor
Unknown
Orbital elements
Apogee altitude
1,555.008 km
Perigee altitude
1,450.166 km
Semi-major axis
7,880.724 km
Eccentricity
0.00665
Inclination
101.5479°
RAAN
275.1101°
Arg. of periapsis
324.247°
True anomaly
99.49312°
Mean anomaly
98.7407°
Eccentric anomaly
99.11701°
Mean motion
3.10237 °/min
Orbital period
116.04 mins
BSTAR
0.00031763
Loading maneuver chart data...
Computing Atmospheric mass density...

Documentation

Showing up to 5 results
|